Weather History for Canton, GA

Change the Weather History Date:

Friday, February 22, 2013

  Actual Average (KGVL) Record (KGVL)
Temperature  
Mean Temperature 40 °F 47 °F  
Max Temperature 42 °F 57 °F 73 °F (1981)
Min Temperature 39 °F 37 °F 7 °F (1963)
Degree Days  
Heating Degree Days 24 18  
Month to date heating degree days 444  
Since 1 July heating degree days 2362  
Moisture  
Dew Point 36 °F    
Average Humidity 81    
Maximum Humidity 87    
Minimum Humidity 76    
Precipitation  
Precipitation 0.00 in 0.18 in 2.96 in (1962)
Month to date precipitation 3.67  
Year to date precipitation 8.70  
Snow  
Snow 0.00 in - - ()
Month to date snowfall  
Since 1 July snowfall  
Snow Depth -    
Sea Level Pressure  
Sea Level Pressure 30.10 in    
Wind  
Wind Speed 9 mph (ENE)    
Max Wind Speed 14 mph    
Max Gust Speed 25 mph    
Visibility 5 miles    
Events Rain    
T = Trace of Precipitation, MM = Missing Value Source: NWS Daily Summary

Daily Weather History Graph

Daily Weather History Graph

Search for Another Location

Airport:

Trip Planner

Search our weather history database for the weather conditions in past years. The results will help you decide how hot, cold, wet, or windy it might be!

Date:

Astronomy

Feb. 22, 2013 Rise Set
Actual Time 7:14 AM EST 6:27 PM EST
Civil Twilight 6:49 AM EST 6:53 PM EST
Nautical Twilight 6:20 AM EST 7:22 PM EST
Astronomical Twilight 5:51 AM EST 7:51 PM EST
Moon 3:43 PM EST (2/22) 4:53 AM EST (2/22)
Length of Visible Light 12h 04m
Length of Day
11h 13m
Waxing Gibbous, 90% of the Moon is Illuminated
Feb 22
Waxing Gibbous
Feb 25
Full
Mar 4
Last Quarter
Mar 11
New
Mar 19
First Quarter

Hourly Weather History & Observations

Time (EST) Temp. Windchill Dew Point Humidity Pressure Visibility Wind Dir Wind Speed Gust Speed Precip Events Conditions
12:15 AM 42.8 °F 38.6 °F 35.6 °F 76% 30.15 in 2.0 mi ENE 6.9 mph - N/A   Overcast
12:35 AM 42.8 °F 37.0 °F 35.6 °F 76% 30.14 in 2.0 mi East 10.4 mph - N/A   Overcast
12:55 AM 42.8 °F 37.5 °F 35.6 °F 76% 30.12 in 2.0 mi ENE 9.2 mph 16.1 mph N/A   Overcast
1:15 AM 42.8 °F 37.5 °F 37.4 °F 81% 30.12 in 2.5 mi ENE 9.2 mph 18.4 mph N/A   Overcast
1:55 AM 42.8 °F 37.0 °F 35.6 °F 76% 30.11 in 2.5 mi ENE 10.4 mph 20.7 mph N/A Rain Light Rain
2:15 AM 42.8 °F 36.2 °F 37.4 °F 81% 30.09 in 5.0 mi East 12.7 mph 20.7 mph N/A Rain Light Rain
2:35 AM 42.8 °F 38.0 °F 37.4 °F 81% 30.09 in 7.0 mi East 8.1 mph 20.7 mph N/A Rain Rain
2:55 AM 42.8 °F 37.5 °F 35.6 °F 76% 30.09 in 4.0 mi East 9.2 mph 25.3 mph N/A Rain Rain
3:15 AM 42.8 °F 36.6 °F 37.4 °F 81% 30.09 in 2.0 mi East 11.5 mph 17.3 mph N/A Rain Light Rain
3:35 AM 42.8 °F 36.6 °F 35.6 °F 76% 30.07 in 3.0 mi East 11.5 mph 20.7 mph N/A Rain Rain
3:55 AM 41.0 °F 34.3 °F 35.6 °F 81% 30.07 in 4.0 mi East 11.5 mph 24.2 mph N/A Rain Rain
4:15 AM 41.0 °F 35.2 °F 35.6 °F 81% 30.07 in 7.0 mi East 9.2 mph 18.4 mph N/A Rain Light Rain
4:35 AM 41.0 °F 34.7 °F 35.6 °F 81% 30.09 in 4.0 mi ENE 10.4 mph 20.7 mph N/A Rain Rain
4:55 AM 41.0 °F 34.3 °F 35.6 °F 81% 30.08 in 2.0 mi ENE 11.5 mph 25.3 mph N/A   Overcast
5:15 AM 41.0 °F 33.9 °F 35.6 °F 81% 30.08 in 4.0 mi ENE 12.7 mph 20.7 mph N/A Rain Rain
5:35 AM 41.0 °F 35.2 °F 35.6 °F 81% 30.09 in 7.0 mi East 9.2 mph 19.6 mph N/A   Drizzle
5:55 AM 41.0 °F 34.7 °F 35.6 °F 81% 30.10 in 5.0 mi ENE 10.4 mph 19.6 mph N/A Rain Light Rain
6:15 AM 41.0 °F 34.3 °F 35.6 °F 81% 30.11 in 5.0 mi East 11.5 mph 20.7 mph N/A   Drizzle
6:35 AM 41.0 °F 33.5 °F 35.6 °F 81% 30.10 in 7.0 mi East 13.8 mph 23.0 mph N/A Rain Light Rain
6:55 AM 41.0 °F 34.3 °F 35.6 °F 81% 30.10 in 10.0 mi East 11.5 mph 23.0 mph N/A   Overcast
7:15 AM 41.0 °F 34.7 °F 35.6 °F 81% 30.13 in 10.0 mi ENE 10.4 mph 17.3 mph N/A Rain Light Rain
7:35 AM 41.0 °F 35.8 °F 35.6 °F 81% 30.13 in 7.0 mi ENE 8.1 mph 19.6 mph N/A   Light Drizzle
7:55 AM 41.0 °F 34.7 °F 35.6 °F 81% 30.13 in 7.0 mi ENE 10.4 mph 18.4 mph N/A   Overcast
8:15 AM 41.0 °F 35.2 °F 35.6 °F 81% 30.14 in 7.0 mi ENE 9.2 mph 19.6 mph N/A   Overcast
8:35 AM 41.0 °F 34.7 °F 35.6 °F 81% 30.14 in 7.0 mi ENE 10.4 mph 21.9 mph N/A   Overcast
8:55 AM 41.0 °F 33.9 °F 33.8 °F 76% 30.16 in 7.0 mi East 12.7 mph 18.4 mph N/A   Overcast
9:15 AM 41.0 °F 34.3 °F 33.8 °F 76% 30.15 in 7.0 mi East 11.5 mph 20.7 mph N/A   Overcast
9:35 AM 41.0 °F 34.3 °F 33.8 °F 76% 30.15 in 5.0 mi East 11.5 mph 20.7 mph N/A   Haze
9:55 AM 39.2 °F 31.6 °F 33.8 °F 81% 30.14 in 4.0 mi East 12.7 mph 23.0 mph N/A   Haze
10:15 AM 39.2 °F 32.0 °F 33.8 °F 81% 30.13 in 5.0 mi ENE 11.5 mph 21.9 mph N/A   Haze
10:35 AM 39.2 °F 34.2 °F 33.8 °F 81% 30.14 in 5.0 mi East 6.9 mph 21.9 mph N/A   Haze
10:55 AM 39.2 °F 31.6 °F 33.8 °F 81% 30.13 in 7.0 mi East 12.7 mph 19.6 mph N/A   Overcast
11:35 AM 41.0 °F 34.7 °F 33.8 °F 76% 30.15 in 4.0 mi East 10.4 mph - N/A   Haze
11:55 AM 41.0 °F 35.2 °F 33.8 °F 76% 30.15 in 2.5 mi ENE 9.2 mph 16.1 mph N/A   Haze
12:15 PM 41.0 °F 35.8 °F 35.6 °F 81% 30.15 in 2.5 mi East 8.1 mph 16.1 mph N/A   Haze
12:35 PM 41.0 °F 35.8 °F 35.6 °F 81% 30.14 in 3.0 mi East 8.1 mph 17.3 mph N/A   Haze
12:55 PM 41.0 °F 35.8 °F 35.6 °F 81% 30.14 in 5.0 mi East 8.1 mph - N/A   Haze
1:15 PM 41.0 °F 35.2 °F 35.6 °F 81% 30.13 in 7.0 mi East 9.2 mph 18.4 mph N/A   Overcast
1:35 PM 41.0 °F 35.2 °F 33.8 °F 76% 30.11 in 7.0 mi East 9.2 mph 18.4 mph N/A   Overcast
1:55 PM 41.0 °F 34.7 °F 33.8 °F 76% 30.09 in 7.0 mi East 10.4 mph 17.3 mph N/A   Overcast
2:15 PM 41.0 °F 34.3 °F 35.6 °F 81% 30.09 in 7.0 mi East 11.5 mph 19.6 mph N/A   Overcast
2:35 PM 41.0 °F 35.2 °F 33.8 °F 76% 30.09 in 7.0 mi East 9.2 mph 16.1 mph N/A   Overcast
2:55 PM 41.0 °F 34.7 °F 35.6 °F 81% 30.09 in 7.0 mi ENE 10.4 mph 16.1 mph N/A   Overcast
3:15 PM 41.0 °F 35.8 °F 35.6 °F 81% 30.08 in 7.0 mi ENE 8.1 mph 16.1 mph N/A   Overcast
3:35 PM 41.0 °F 34.7 °F 35.6 °F 81% 30.07 in 4.0 mi ENE 10.4 mph 17.3 mph N/A   Haze
3:55 PM 41.0 °F 34.7 °F 35.6 °F 81% 30.08 in 3.0 mi East 10.4 mph - N/A   Haze
4:15 PM 41.0 °F 35.8 °F 35.6 °F 81% 30.07 in 3.0 mi ENE 8.1 mph 17.3 mph N/A   Haze
4:35 PM 41.0 °F 36.4 °F 35.6 °F 81% 30.06 in 3.0 mi ENE 6.9 mph 17.3 mph N/A   Haze
4:55 PM 41.0 °F 34.7 °F 35.6 °F 81% 30.05 in 3.0 mi East 10.4 mph 17.3 mph N/A   Haze
5:15 PM 41.0 °F 37.1 °F 35.6 °F 81% 30.05 in 2.0 mi ENE 5.8 mph 17.3 mph N/A   Haze
5:35 PM 41.0 °F 35.8 °F 35.6 °F 81% 30.05 in 1.8 mi East 8.1 mph - N/A   Haze
5:55 PM 41.0 °F 37.1 °F 35.6 °F 81% 30.07 in 3.0 mi East 5.8 mph - N/A   Haze
6:15 PM 41.0 °F 38.0 °F 35.6 °F 81% 30.07 in 4.0 mi East 4.6 mph - N/A   Haze
6:35 PM 41.0 °F 37.1 °F 35.6 °F 81% 30.07 in 3.0 mi East 5.8 mph - N/A   Haze
6:55 PM 41.0 °F 37.1 °F 35.6 °F 81% 30.08 in 2.5 mi East 5.8 mph - N/A   Haze
7:15 PM 41.0 °F 35.8 °F 35.6 °F 81% 30.09 in 1.8 mi East 8.1 mph - N/A   Light Drizzle
7:35 PM 41.0 °F 35.2 °F 35.6 °F 81% 30.11 in 2.0 mi East 9.2 mph - N/A   Light Drizzle
7:55 PM 41.0 °F 37.1 °F 35.6 °F 81% 30.10 in 1.8 mi NE 5.8 mph - N/A Rain Light Rain
8:15 PM 41.0 °F 33.5 °F 35.6 °F 81% 30.06 in 5.0 mi East 13.8 mph 18.4 mph N/A Rain Light Rain
8:35 PM 41.0 °F 35.2 °F 35.6 °F 81% 30.04 in 5.0 mi ENE 9.2 mph - N/A   Overcast
8:55 PM 41.0 °F 34.7 °F 35.6 °F 81% 30.02 in 7.0 mi ENE 10.4 mph 20.7 mph N/A   Overcast
9:15 PM 41.0 °F 34.3 °F 35.6 °F 81% 30.06 in 7.0 mi ESE 11.5 mph - N/A   Overcast
9:35 PM 41.0 °F 35.8 °F 35.6 °F 81% 30.05 in 7.0 mi East 8.1 mph - N/A Rain Light Rain
9:55 PM 41.0 °F - 37.4 °F 87% 30.11 in 10.0 mi Calm Calm - N/A Rain Light Rain
10:15 PM 41.0 °F 39.0 °F 37.4 °F 87% 30.13 in 7.0 mi East 3.5 mph - N/A Rain Light Rain
10:35 PM 41.0 °F 36.4 °F 37.4 °F 87% 30.10 in 5.0 mi ESE 6.9 mph - N/A Rain Light Rain
10:55 PM 41.0 °F 36.4 °F 37.4 °F 87% 30.08 in 5.0 mi East 6.9 mph - N/A Rain Light Rain
11:15 PM 41.0 °F 38.0 °F 37.4 °F 87% 30.08 in 4.0 mi ENE 4.6 mph - N/A Rain Light Rain
11:35 PM 41.0 °F 39.0 °F 37.4 °F 87% 30.07 in 4.0 mi East 3.5 mph - N/A Rain Light Rain
11:55 PM 41.0 °F 37.1 °F 37.4 °F 87% 30.04 in 4.0 mi ENE 5.8 mph - N/A Rain Light Rain